GW3787 Weather Reports


Display with metric or nautical units.
time (UTC)temp
F
wind
direction
speed
MPH
gust
MPH
rain 1hr
in
rain 24hr
in
rain mn
in
humidity
%
barometer
mb
20260505223009 46 20 13.0 21.0 0.00 0.00 0.00 34 1020.6
20260505221504 47 26 11.0 18.0 0.00 0.00 0.00 34 1020.5
20260505220007 47 5 6.0 21.0 0.00 0.00 0.00 38 1020.3
20260505214502 47 5 8.0 21.0 0.00 0.00 0.00 36 1020.4
20260505213001 46 27 12.0 21.0 0.00 0.00 0.00 37 1020.3
20260505211502 46 31 11.0 20.0 0.00 0.00 0.00 37 1020.6
20260505210104 46 29 11.0 21.0 0.00 0.00 0.00 36 1020.4
20260505204602 46 335 12.0 24.0 0.00 0.00 0.00 36 1020.5
20260505203101 47 20 7.0 20.0 0.00 0.00 0.00 40 1020.6
20260505201607 46 5 12.0 23.0 0.00 0.00 0.00 40 1020.8
20260505200107 47 34 12.0 22.0 0.00 0.00 0.00 38 1020.6
20260505194603 46 324 6.0 19.0 0.00 0.00 0.00 43 1020.6
20260505193054 45 5 5.0 27.0 0.00 0.00 0.00 41 1020.6
20260505191554 45 26 15.0 28.0 0.00 0.00 0.00 41 1020.7
20260505190054 45 10 10.0 21.0 0.00 0.00 0.00 42 1020.6
20260505184551 45 20 8.0 24.0 0.00 0.00 0.00 42 1020.7
20260505183051 45 10 4.0 23.0 0.00 0.00 0.00 44 1020.7
20260505181547 44 29 13.0 27.0 0.00 0.00 0.00 41 1020.6
20260505180045 45 28 12.0 21.0 0.00 0.00 0.00 42 1020.7
20260505174546 44 18 6.0 20.0 0.00 0.00 0.00 43 1020.6
20260505173045 43 350 6.0 21.0 0.00 0.00 0.00 48 1020.5
20260505171540 43 341 5.0 15.0 0.00 0.00 0.00 49 1020.5
20260505170038 44 20 8.0 25.0 0.00 0.00 0.00 46 1020.4
20260505164537 42 29 6.0 20.0 0.00 0.00 0.00 48 1020.5
20260505163034 42 338 1.0 15.0 0.00 0.00 0.00 53 1020.5
20260505161531 42 10 4.0 16.0 0.00 0.00 0.00 52 1020.6
20260505153027 41 334 1.0 11.0 0.00 0.00 0.00 58 1020.5
20260505151521 40 25 5.0 13.0 0.00 0.00 0.00 58 1020.5
20260505124603 33 17 3.0 5.0 0.00 0.00 0.00 76 1019.4
20260505123053 31 17 0.0 1.0 0.00 0.00 0.00 75 1019.3
20260505121550 31 17 0.0 0.0 0.00 0.00 0.00 74 1019.1
20260505120051 32 17 0.0 2.0 0.00 0.00 0.00 74 1019.0
20260505114548 32 17 0.0 0.0 0.00 0.00 0.00 73 1018.9
20260505113044 32 17 0.0 0.0 0.00 0.00 0.00 71 1019.0
20260505111541 33 17 0.0 1.0 0.00 0.00 0.00 68 1018.8
20260505101539 36 18 0.0 5.0 0.00 0.00 0.00 62 1018.7
20260505100030 37 22 0.0 4.0 0.00 0.00 0.00 60 1018.6
20260505094530 37 22 0.0 3.0 0.00 0.00 0.00 61 1018.6
20260505093027 37 22 0.0 4.0 0.00 0.00 0.00 62 1018.5
20260505091526 36 22 0.0 2.0 0.00 0.00 0.00 62 1018.5
20260505090024 36 22 0.0 2.0 0.00 0.00 0.00 63 1018.4
20260505084533 35 22 0.0 3.0 0.00 0.00 0.00 63 1018.3
20260505083022 36 22 0.0 1.0 0.00 0.00 0.00 63 1018.1
20260505081521 35 22 0.0 2.0 0.00 0.00 0.00 64 1017.9
20260505080020 36 22 0.0 1.0 0.00 0.00 0.00 62 1017.7
20260505074517 36 22 0.0 0.0 0.00 0.00 0.00 61 1017.7
20260505073018 37 22 0.0 0.0 0.00 0.00 0.00 60 1017.5
20260505071513 37 22 0.0 0.0 0.00 0.00 0.00 59 1017.7
20260505070012 38 22 0.0 1.0 0.00 0.00 0.00 58 1017.6
20260505064508 39 22 0.0 3.0 0.00 0.00 0.00 56 1017.8
20260505063009 39 22 0.0 6.0 0.00 0.00 0.00 55 1017.6
20260505061502 39 22 2.0 4.0 0.00 0.00 0.00 54 1017.5
20260505060058 40 22 0.0 3.0 0.00 0.00 0.00 54 1017.2
20260505054610 40 22 0.0 3.0 0.00 0.00 0.00 55 1017.1
20260505053101 38 10 1.0 8.0 0.00 0.00 0.00 59 1017.1
20260505051555 36 47 0.0 0.0 0.00 0.00 0.00 66 1017.2
20260505041552 38 46 0.0 0.0 0.00 0.00 0.00 56 1016.3
20260505040050 38 46 0.0 3.0 0.00 0.00 0.00 56 1016.1
20260505034538 38 46 0.0 0.0 0.00 0.00 0.00 55 1016.1
20260505033034 40 46 0.0 4.0 0.00 0.00 0.00 53 1015.8
20260505031539 41 46 0.0 6.0 0.00 0.00 0.00 51 1015.1
20260505030027 41 44 1.0 6.0 0.00 0.00 0.00 50 1015.0
20260505024525 42 49 4.0 7.0 0.00 0.00 0.00 48 1014.8
20260505023022 43 46 3.0 10.0 0.00 0.00 0.00 47 1014.6
20260505021520 44 33 3.0 9.0 0.00 0.00 0.00 45 1014.3
20260505020018 45 39 5.0 13.0 0.00 0.00 0.00 43 1014.1
20260505014516 47 47 8.0 17.0 0.00 0.00 0.00 40 1013.8
20260505013013 48 47 8.0 20.0 0.00 0.00 0.00 38 1013.5
20260505011512 49 41 8.0 20.0 0.00 0.00 0.00 35 1013.2
20260505010010 50 25 12.0 24.0 0.00 0.00 0.00 32 1012.9
20260505004510 51 35 10.0 21.0 0.00 0.00 0.00 30 1012.8
20260505003008 52 26 8.0 26.0 0.00 0.00 0.00 26 1012.7
20260505001507 52 18 15.0 23.0 0.00 0.00 0.00 25 1012.6
20260505000007 53 10 8.0 24.0 0.00 0.00 0.00 25 1012.4
20260504234506 52 31 11.0 23.0 0.00 0.00 0.00 24 1012.3
20260504233003 54 5 10.0 21.0 0.00 0.00 0.00 22 1012.3
20260504231502 54 31 12.0 25.0 0.00 0.00 0.00 22 1012.3
20260504230002 54 27 14.0 28.0 0.00 0.00 0.00 22 1012.0
20260504224612 54 5 7.0 22.0 0.00 0.00 0.00 24 1011.8